Location: ????????
(55.8351°N, 38.7040°E)
Time: 19:16:37
(UTC+00:00)

NOSS 3-4 (A) - Pass Details

Date: 14 April 2024
Orbit: 806 x 1405 km, 63.4° (Epoch: 14 May)

Event Time Altitude Azimuth Distance (km) Brightness Sun altitude
Exits shadow 00:16:44 24° 231° (SW) 1,696 4.2 -15.6°
Maximum altitude 00:20:19 89° 324° (NW) 901 3.3 -15.3°
Drops below altitude 10° 00:26:40 10° 53° (NE) 2,753 7.3 -14.6°
Sets 00:29:26 0° 53° (NE) 3,795 8.5 -14.4°
